Oakes, ND

11:26 PM CST on February 23, 2017 (GMT -0600)
Oakes

Weather History for K2D5 - October, 2012

Change the Weather History Date:

Wednesday, October 31, 2012

  Actual Average (KP67) Record (KP67)
Temperature  
Mean Temperature 44 °F -  
Max Temperature 59 °F 41 °F 55 °F (1997)
Min Temperature 28 °F 24 °F 15 °F (1996)
Degree Days  
Heating Degree Days 22    
Moisture  
Dew Point 36 °F    
Average Humidity 87    
Maximum Humidity 100    
Minimum Humidity 55    
Precipitation  
Precipitation 0.00 in - - ()
Sea Level Pressure  
Sea Level Pressure 30.00 in    
Wind  
Wind Speed 8 mph (South)    
Max Wind Speed 21 mph    
Max Gust Speed 28 mph    
Visibility 9 miles    
Events      
Averages and records for this station are not official NWS values.
T = Trace of Precipitation, MM = Missing Value Source: NWS Daily Summary

Daily Weather History Graph

Daily Weather History Graph

Search for Another Location

Airport or City:

Trip Planner

Search our weather history database for the weather conditions in past years. The results will help you decide how hot, cold, wet, or windy it might be!

Date:

Astronomy

Oct. 31, 2012 Rise Set
Actual Time 8:12 AM CDT 6:18 PM CDT
Civil Twilight 7:41 AM CDT 6:49 PM CDT
Nautical Twilight 7:05 AM CDT 7:25 PM CDT
Astronomical Twilight 6:30 AM CDT 8:00 PM CDT
Moon 7:24 PM CDT (10/31) 10:01 AM CDT (10/31)
Length of Visible Light 11h 08m
Length of Day
10h 06m
Full, 97% of the Moon is Illuminated
Oct 31
Full
Nov 6
Last Quarter
Nov 13
New
Nov 20
First Quarter
Nov 28
Full

Hourly Weather History & Observations

Time (CDT) Temp. Windchill Dew Point Humidity Pressure Visibility Wind Dir Wind Speed Gust Speed Precip Events Conditions
12:15 AM 32.0 °F 25.6 °F 32.0 °F 100% 30.02 in 10.0 mi SE 6.9 mph - N/A   Partly Cloudy
12:35 AM 32.0 °F 25.6 °F 32.0 °F 100% 30.03 in 10.0 mi SSE 6.9 mph - N/A   Scattered Clouds
12:55 AM 32.0 °F 25.6 °F 32.0 °F 100% 30.03 in 10.0 mi SSE 6.9 mph - N/A   Mostly Cloudy
1:15 AM 32.0 °F 27.5 °F 32.0 °F 100% 30.03 in 10.0 mi ESE 4.6 mph - N/A   Mostly Cloudy
1:35 AM 32.0 °F 25.6 °F 32.0 °F 100% 30.03 in 10.0 mi SE 6.9 mph - N/A   Partly Cloudy
1:55 AM 32.0 °F 25.6 °F 32.0 °F 100% 30.03 in 10.0 mi SSE 6.9 mph - N/A   Clear
2:15 AM 30.2 °F 23.4 °F 30.2 °F 100% 30.02 in 10.0 mi SSE 6.9 mph - N/A   Clear
2:35 AM 30.2 °F 24.3 °F 30.2 °F 100% 30.03 in 10.0 mi SE 5.8 mph - N/A   Unknown
2:55 AM 28.4 °F 22.2 °F 28.4 °F 100% 30.03 in 10.0 mi SE 5.8 mph - N/A   Unknown
3:15 AM 30.2 °F 23.4 °F 30.2 °F 100% 30.03 in 10.0 mi SSE 6.9 mph - N/A   Unknown
3:35 AM 28.4 °F 21.2 °F 28.4 °F 100% 30.02 in 10.0 mi SSE 6.9 mph - N/A   Clear
3:55 AM 28.4 °F 21.2 °F 28.4 °F 100% 30.02 in 10.0 mi SSE 6.9 mph - N/A   Clear
4:15 AM 28.4 °F 21.2 °F 28.4 °F 100% 30.01 in 10.0 mi SSE 6.9 mph - N/A   Clear
4:35 AM 28.4 °F 20.4 °F 28.4 °F 100% 30.00 in 10.0 mi SSE 8.1 mph - N/A   Clear
4:55 AM 28.4 °F 19.7 °F 28.4 °F 100% 30.00 in 10.0 mi SSE 9.2 mph - N/A   Unknown
5:15 AM 28.4 °F 21.2 °F 28.4 °F 100% 30.01 in 10.0 mi SSE 6.9 mph - N/A   Unknown
5:35 AM 28.4 °F 22.2 °F 28.4 °F 100% 30.01 in 10.0 mi South 5.8 mph - N/A   Unknown
5:55 AM 28.4 °F 20.4 °F 28.4 °F 100% 30.01 in 10.0 mi South 8.1 mph - N/A   Unknown
6:15 AM 30.2 °F 21.9 °F 30.2 °F 100% 30.00 in 10.0 mi South 9.2 mph - N/A   Unknown
6:35 AM 32.0 °F 23.6 °F 30.2 °F 93% 30.00 in 10.0 mi South 10.4 mph - N/A   Unknown
6:55 AM 32.0 °F 24.2 °F 30.2 °F 93% 30.00 in 10.0 mi South 9.2 mph - N/A   Unknown
7:15 AM 28.4 °F 19.7 °F 28.4 °F 100% 29.99 in 10.0 mi SSE 9.2 mph - N/A   Unknown
7:35 AM 30.2 °F 21.3 °F 30.2 °F 100% 29.99 in 10.0 mi South 10.4 mph - N/A   Unknown
7:55 AM 32.0 °F 23.6 °F 30.2 °F 93% 29.99 in 10.0 mi South 10.4 mph - N/A   Unknown
8:15 AM 32.0 °F 24.8 °F 32.0 °F 100% 29.99 in 10.0 mi South 8.1 mph - N/A   Unknown
8:35 AM 32.0 °F 26.4 °F 32.0 °F 100% 29.99 in 10.0 mi SSW 5.8 mph - N/A   Unknown
8:55 AM 32.0 °F 24.2 °F 32.0 °F 100% 30.00 in 10.0 mi South 9.2 mph - N/A   Unknown
9:15 AM 33.8 °F 25.3 °F 30.2 °F 87% 29.99 in 10.0 mi SSW 11.5 mph - N/A   Unknown
9:35 AM 35.6 °F 27.5 °F 32.0 °F 87% 30.00 in 10.0 mi SSW 11.5 mph - N/A   Unknown
9:55 AM 35.6 °F 27.5 °F 32.0 °F 87% 29.99 in 10.0 mi SSW 11.5 mph - N/A   Unknown
10:15 AM 37.4 °F 30.8 °F 32.0 °F 81% 30.00 in 10.0 mi SSW 9.2 mph - N/A   Unknown
10:35 AM 39.2 °F 32.5 °F 32.0 °F 75% 29.98 in 10.0 mi South 10.4 mph - N/A   Clear
10:55 AM 41.0 °F 34.7 °F 33.8 °F 76% 29.98 in 10.0 mi SSW 10.4 mph - N/A   Clear
11:15 AM 42.8 °F 37.5 °F 35.6 °F 76% 29.98 in 10.0 mi SSW 9.2 mph - N/A   Clear
11:35 AM 44.6 °F 39.2 °F 37.4 °F 76% 29.97 in 10.0 mi SSW 10.4 mph - N/A   Clear
11:55 AM 46.4 °F 41.5 °F 37.4 °F 71% 29.96 in 10.0 mi SW 10.4 mph - N/A   Scattered Clouds
12:15 PM 48.2 °F - 39.2 °F 71% 29.96 in 10.0 mi SW 9.2 mph - N/A   Scattered Clouds
12:35 PM 50.0 °F - 39.2 °F 66% 29.96 in 10.0 mi SSW 5.8 mph - N/A   Partly Cloudy
12:55 PM 50.0 °F - 39.2 °F 66% 29.96 in 10.0 mi South 6.9 mph - N/A   Partly Cloudy
1:15 PM 51.8 °F - 41.0 °F 67% 29.95 in 10.0 mi SSW 5.8 mph - N/A   Mostly Cloudy
1:55 PM 55.4 °F - 41.0 °F 58% 29.94 in 10.0 mi SSW 6.9 mph - N/A   Mostly Cloudy
2:15 PM 55.4 °F - 41.0 °F 58% 29.93 in 10.0 mi SW 6.9 mph - N/A   Mostly Cloudy
2:35 PM 57.2 °F - 41.0 °F 55% 29.94 in 9.0 mi WSW 4.6 mph - N/A   Scattered Clouds
2:55 PM 57.2 °F - 41.0 °F 55% 29.94 in 10.0 mi SW 4.6 mph - N/A   Mostly Cloudy
3:15 PM 57.2 °F - 41.0 °F 55% 29.93 in 9.0 mi Calm Calm - N/A   Overcast
3:35 PM 59.0 °F - 42.8 °F 55% 29.93 in 5.0 mi Calm Calm - N/A   Haze
3:55 PM 59.0 °F - 42.8 °F 55% 29.94 in 9.0 mi Calm Calm - N/A   Scattered Clouds
4:35 PM 57.2 °F - 42.8 °F 59% 29.93 in 7.0 mi Calm Calm - N/A   Mostly Cloudy
4:55 PM 57.2 °F - 42.8 °F 59% 29.94 in 5.0 mi Calm Calm - N/A   Haze
5:35 PM 51.8 °F - 42.8 °F 71% 29.95 in 8.0 mi NNW 3.5 mph - N/A   Mostly Cloudy
5:55 PM 51.8 °F - 42.8 °F 71% 29.96 in 10.0 mi NW 5.8 mph - N/A   Overcast
6:35 PM 50.0 °F - 44.6 °F 82% 29.99 in 3.0 mi NNW 13.8 mph - N/A   Haze
6:55 PM 48.2 °F - 44.6 °F 87% 30.00 in 10.0 mi NNW 10.4 mph - N/A   Partly Cloudy
7:15 PM 46.4 °F 40.4 °F 44.6 °F 93% 30.00 in 9.0 mi NNW 13.8 mph - N/A   Clear
7:35 PM 44.6 °F 37.8 °F 44.6 °F 100% 30.01 in 8.0 mi NNW 15.0 mph 21.9 mph N/A   Clear
7:55 PM 44.6 °F 38.4 °F 44.6 °F 100% 30.01 in 7.0 mi NNW 12.7 mph - N/A   Clear
8:15 PM 44.6 °F 37.4 °F 44.6 °F 100% 30.01 in 5.0 mi NNW 16.1 mph - N/A   Scattered Clouds
8:35 PM 44.6 °F 37.2 °F 44.6 °F 100% 30.02 in 4.0 mi NNW 17.3 mph 23.0 mph N/A   Overcast
8:55 PM 44.6 °F 38.1 °F 44.6 °F 100% 30.03 in 4.0 mi NNW 13.8 mph - N/A   Overcast
9:15 PM 44.6 °F 37.4 °F 44.6 °F 100% 30.03 in 5.0 mi North 16.1 mph - N/A   Overcast
9:35 PM 42.8 °F 34.0 °F 42.8 °F 100% 30.04 in 7.0 mi North 20.7 mph 27.6 mph N/A   Overcast
9:55 PM 41.0 °F 32.2 °F 41.0 °F 100% 30.05 in 10.0 mi North 18.4 mph 23.0 mph N/A   Overcast
10:15 PM 41.0 °F 32.2 °F 39.2 °F 93% 30.05 in 10.0 mi North 18.4 mph 23.0 mph N/A   Overcast
10:35 PM 41.0 °F 31.9 °F 39.2 °F 93% 30.05 in 8.0 mi North 19.6 mph 25.3 mph N/A   Overcast
10:55 PM 39.2 °F 31.2 °F 39.2 °F 100% 30.06 in 10.0 mi North 13.8 mph - N/A   Overcast
11:15 PM 39.2 °F 30.2 °F 37.4 °F 93% 30.06 in 10.0 mi North 17.3 mph 20.7 mph N/A   Overcast
11:35 PM 39.2 °F 30.8 °F 37.4 °F 93% 30.08 in 10.0 mi North 15.0 mph - N/A   Overcast
11:55 PM 39.2 °F 30.8 °F 35.6 °F 87% 30.08 in 10.0 mi North 15.0 mph 21.9 mph N/A   Overcast